Location: Chrząstowo
(52.0654°N, 17.1290°E)
Time: 04:30:21
(UTC+01:00)

Envisat - Pass Details

Date: 14 December 2019
Orbit: 764 x 766 km, 98.1° (Epoch: 27 January)

Event Time Altitude Azimuth Distance (km) Brightness Sun altitude
Rises 06:28:25 0° 17° (NNE) 3,248 6.2 -11.9°
Reaches altitude 10° 06:30:47 10° 22° (NNE) 2,317 5.5 -11.6°
Maximum altitude 06:35:48 55° 100° (E) 916 3.8 -10.9°
Drops below altitude 10° 06:40:47 10° 179° (S) 2,298 5.8 -10.2°
Sets 06:43:07 0° 183° (S) 3,220 6.5 -9.8°
